星链-35236(STARLINK-35236)

导读

STARLINK-35236是美国SpaceX星链星座的成员卫星,于2025年10月16日发射升空,星链计划旨在为全球提供低延迟、高速率的卫星互联网覆盖服务,该卫星承担星座组网扩容任务,依托近地轨道部署,可为偏远地区、移动场景提供网络接入支持,进一步完善星链全球通信网络的覆盖密度与服务能力。

基本信息
目录编号:
66008
目录名称:
STARLINK-35236
国际标识:
2025-232D
轨道中心:
EARTH
卫星名称:
星链-35236
卫星全名:
星链-35236(STARLINK-35236)
卫星状态:
在轨 (已飞行240 天)
发射日期:
2025-10-16 UTC
国别 :
美国 (US)
星等 :
--
轨道信息
数据来源 国际轨道数据
星历时间: 2026-06-13T04:47:30+0800
15小时前
查看轨道信息
半长轴: 6840.814km
偏心率: 0.0001428
轨道倾角: 53.161°
近地点辐角 96.133°
升交点赤经 21.389°
平近点角 263.983°
近地点: 461.7km
远地点: 463.654km
周期: 93.847分钟
每日圈数: 15.344089
详细信息
固有亮度:
5
最大亮度:
2.5
卫星平台:
Starlink V1.0
覆盖范围:
全球
运营商:
太空探索技术公司
运营商所在国:
美国
制造商(研发单位):
太空探索技术公司
制造商所在国:
美国
使用方式:
暂无
卫星简介
Starlink 计划是 SpaceX 推出的全球卫星互联网项目,通过发射低轨道卫星,为全球尤其是偏远地区提供高速、低延迟的互联网服务。自 2019 年起,Starlink 已部署数千颗卫星,旨在缩小全球数字鸿沟,推动互联网普及。该项目还为军事、航空等行业提供通信支持,带来广泛经济效益。
2D轨道图
3D轨道图
轨道高度分析图
轨道倾角分析图
轨道综合分析图
查看轨道综合分析图